Wind_Speed
8 8 8 8 8 8 8 8 9 9 10 10 11 11 11 11 12 13 13 14 14 14 14 14 14 15 15 15 15 16 17 17 18 19 20 20 21 21
8 8 8 8 8 7 8 9 9 9 10 10 11 11 12 13 13 13 13 14 14 14 14 14 14 15 15 15 15 17 18 19 19 20 21 21 22 22
8 8 8 8 8 8 9 10 10 11 11 11 11 12 13 13 13 13 14 14 15 15 15 15 15 15 16 16 17 19 20 20 21 22 22 22 23 23
8 8 9 9 9 10 11 11 12 12 12 12 12 13 13 13 14 14 14 15 15 16 16 16 16 17 17 18 19 19 20 21 21 22 23 24 24 25
10 9 10 10 10 11 12 12 13 13 14 13 13 14 14 14 14 14 15 15 15 16 16 17 17 18 19 20 20 21 21 22 22 23 24 25 26 27
11 11 11 12 12 12 12 12 13 14 14 14 15 15 15 15 15 15 16 16 16 17 18 18 18 19 20 21 22 22 22 22 23 24 25 26 26 27
13 13 13 13 13 13 13 14 14 14 14 15 15 16 16 16 16 17 17 18 18 18 18 19 19 20 21 22 23 23 23 23 25 25 26 27 27 27
14 14 14 14 14 14 15 15 15 15 15 15 16 16 17 17 18 18 18 18 19 19 20 20 21 22 22 23 23 24 24 24 25 26 27 27 27 28
14 14 15 15 15 15 16 16 16 17 17 17 17 17 18 18 18 19 19 19 19 20 20 21 22 22 23 24 24 24 24 25 26 27 27 28 29 29
16 16 16 17 17 17 17 17 18 19 19 19 19 19 19 20 20 20 20 21 21 21 22 22 23 24 24 24 25 25 26 27 27 28 29 29 29 29
17 17 17 18 18 18 19 19 20 20 20 20 21 22 21 21 22 22 22 22 23 23 24 24 25 25 26 27 27 28 28 29 30 30 30 30 30 30
19 19 19 20 21 21 21 21 22 22 22 23 23 24 23 23 24 24 24 25 25 26 26 27 28 28 28 29 29 29 30 31 31 32 32 31 31 31
21 21 22 22 22 23 23 23 23 23 24 24 25 25 25 25 26 27 27 27 27 28 28 29 30 30 30 30 31 31 32 33 33 33 33 33 33 33
23 23 24 24 24 24 25 25 25 25 26 27 27 27 28 27 28 28 29 29 29 30 30 31 31 32 32 32 33 33 34 35 35 35 35 35 35 35
26 26 26 27 27 27 27 27 27 28 28 29 29 29 30 29 30 30 31 31 31 32 32 33 33 34 34 35 35 36 36 36 36 36 36 36 36 37
27 28 29 29 29 29 29 29 29 30 30 30 30 31 32 32 32 32 32 33 34 34 35 35 35 35 36 36 37 38 38 37 37 37 37 37 38 38
29 29 30 30 30 31 31 31 31 32 32 33 33 33 33 34 34 34 34 35 35 36 36 36 36 37 37 37 37 38 39 38 38 38 38 38 38 39
30 30 31 32 32 32 32 33 34 34 35 35 34 35 35 34 35 35 36 37 37 37 37 37 37 37 37 37 38 38 38 38 39 39 39 39 39 39
31 31 32 32 33 34 34 35 35 35 35 35 35 35 35 35 36 36 37 37 37 37 37 38 38 38 38 38 38 39 39 39 39 39 39 39 39 38
33 33 33 34 34 35 35 35 35 35 35 35 35 36 36 37 37 37 37 38 38 38 38 39 39 39 39 39 38 38 39 39 39 39 40 40 39 38
34 34 35 35 35 35 35 35 36 36 36 37 37 38 38 38 37 37 38 38 38 39 39 40 41 41 40 40 39 39 39 40 40 40 40 40 39 38
35 35 35 35 35 35 35 36 36 36 37 37 38 38 38 38 38 38 38 39 39 40 41 41 41 40 40 40 40 40 39 39 39 40 41 40 39 38
36 37 37 36 36 36 36 37 37 37 38 38 38 39 38 38 38 39 39 39 40 41 41 40 40 40 40 40 40 40 39 39 40 40 40 40 40 39
Wind_Direction
286 287 285 281 279 277 280 284 289 290 290 284 280 275 272 275 280 285 287 286 286 291 290 291 289 290 289 286 284 282 284 286 287 286 288 289 290 290
290 291 288 282 281 276 279 284 288 292 294 286 279 279 280 280 283 286 289 289 287 290 294 296 293 292 290 287 286 285 285 286 288 289 290 290 291 291
286 290 289 289 288 286 288 292 292 295 298 294 288 284 283 283 284 287 289 290 289 290 292 294 293 294 293 290 288 287 288 289 290 290 290 291 292 293
279 284 289 291 294 294 295 297 299 301 301 299 295 290 287 289 291 291 292 292 291 291 292 293 293 293 293 293 293 292 290 291 291 291 292 293 294 295
278 282 288 291 292 293 295 296 297 299 301 300 296 292 290 290 292 293 294 294 294 294 293 293 294 294 294 294 295 294 291 292 293 293 294 295 295 296
276 278 282 286 290 290 294 295 297 299 300 300 297 294 291 290 290 291 293 294 295 295 293 293 295 295 297 298 297 297 295 295 296 296 296 297 298 298
278 278 280 281 284 287 292 297 297 298 300 302 300 295 292 290 289 290 292 293 294 295 294 294 296 298 300 300 299 298 295 294 296 297 297 298 298 298
278 278 280 282 283 286 289 292 295 297 299 300 301 298 295 294 292 291 291 292 293 293 294 295 296 298 300 300 299 297 296 296 296 297 298 300 300 299
281 280 280 281 283 285 287 289 291 293 295 297 299 298 296 296 295 294 293 293 293 294 295 295 296 299 300 301 300 299 297 298 298 298 300 301 300 299
282 283 284 283 284 286 287 288 290 292 294 294 294 296 295 294 293 293 292 292 292 292 293 294 296 298 299 299 298 297 297 298 300 302 302 302 301 299
280 282 285 285 286 287 287 288 289 290 291 292 292 293 294 292 291 291 291 291 292 292 293 294 295 297 298 298 297 297 296 297 299 301 301 300 300 299
279 280 281 283 285 286 286 288 288 287 289 291 292 291 291 292 292 292 291 291 292 292 292 294 295 296 296 297 297 296 296 296 298 299 299 298 297 297
279 279 279 281 283 285 286 287 288 288 288 290 291 290 290 292 292 293 292 291 292 291 292 293 295 296 296 297 298 296 296 296 297 298 298 297 296 295
278 279 281 281 281 282 283 284 285 287 288 289 289 289 290 291 292 292 292 292 292 292 292 294 295 295 296 297 297 297 296 296 297 297 297 297 296 295
277 279 281 282 281 281 282 283 285 286 287 288 288 289 289 289 290 291 291 292 292 292 292 293 294 295 296 297 297 297 296 296 296 296 296 296 296 295
277 278 279 280 282 282 283 283 284 285 286 287 287 288 289 289 289 289 289 289 291 292 293 294 294 295 296 297 297 297 297 296 295 295 296 296 295 295
278 278 279 280 281 282 283 283 284 285 286 288 287 287 287 287 288 288 289 290 291 291 292 293 295 296 296 297 296 297 297 296 295 295 296 295 296 296
279 280 280 280 280 281 282 283 284 285 287 288 288 287 286 287 287 288 289 290 291 291 291 293 294 295 296 296 296 296 296 296 296 295 295 296 296 296
278 280 281 281 281 282 283 284 283 284 285 286 288 288 287 287 287 288 288 289 290 290 291 292 293 294 295 296 296 296 296 296 296 296 296 296 297 297
278 279 280 281 283 283 284 283 283 283 283 285 287 288 288 287 286 287 288 289 289 290 290 292 293 294 295 296 296 297 297 297 297 297 296 296 297 297
279 279 280 281 281 282 282 283 284 285 285 285 286 287 288 287 286 287 288 289 290 290 290 291 293 294 295 296 296 297 297 297 297 297 297 296 296 295
280 281 281 280 280 281 283 284 284 286 287 288 288 288 288 287 286 287 288 289 289 290 291 292 293 293 295 295 296 296 297 297 298 299 299 297 296 295
281 282 282 281 281 282 283 283 284 284 286 287 287 287 287 286 286 287 289 289 289 290 291 292 292 293 294 294 295 295 296 297 298 299 299 298 296 295
Height
5818 5817 5817 5816 5816 5815 5815 5815 5815 5814 5813 5812 5812 5811 5811 5811 5810 5810 5809 5809 5808 5807 5806 5805 5804 5803 5802 5801 5801 5801 5800 5800 5799 5798 5797 5796 5794 5793
5816 5815 5815 5814 5814 5813 5813 5812 5812 5811 5811 5810 5809 5808 5808 5808 5807 5807 5806 5805 5805 5804 5803 5802 5801 5800 5799 5798 5797 5797 5796 5795 5794 5793 5791 5790 5789 5787
5814 5814 5813 5813 5812 5811 5811 5810 5809 5809 5808 5807 5806 5805 5805 5804 5804 5803 5803 5802 5801 5800 5799 5798 5797 5796 5795 5794 5793 5792 5791 5790 5788 5787 5786 5784 5783 5781
5812 5812 5811 5810 5810 5809 5808 5808 5807 5806 5805 5804 5803 5802 5802 5801 5801 5800 5799 5798 5798 5796 5795 5794 5793 5792 5791 5790 5788 5787 5786 5784 5782 5781 5780 5778 5776 5774
5810 5809 5809 5808 5807 5807 5806 5805 5804 5803 5802 5801 5800 5799 5798 5798 5797 5797 5796 5795 5794 5792 5791 5790 5789 5788 5787 5785 5784 5782 5780 5778 5777 5775 5773 5771 5769 5767
5807 5806 5806 5805 5805 5804 5803 5802 5801 5800 5799 5798 5797 5796 5795 5795 5794 5793 5792 5791 5790 5788 5787 5786 5785 5783 5782 5780 5778 5776 5774 5772 5770 5768 5766 5764 5762 5759
5804 5803 5803 5802 5802 5801 5800 5799 5798 5797 5796 5795 5794 5793 5792 5791 5790 5789 5788 5787 5786 5784 5783 5781 5780 5778 5776 5774 5772 5770 5768 5766 5764 5761 5759 5757 5754 5752
5800 5800 5799 5798 5798 5797 5797 5796 5795 5794 5793 5792 5790 5789 5788 5787 5786 5785 5784 5783 5781 5780 5778 5776 5774 5772 5770 5768 5766 5764 5761 5759 5757 5754 5752 5749 5746 5744
5796 5795 5795 5794 5794 5793 5793 5792 5791 5790 5789 5788 5787 5785 5784 5783 5781 5780 5779 5777 5776 5774 5773 5771 5769 5767 5764 5762 5759 5757 5754 5752 5750 5747 5744 5741 5739 5736
5792 5791 5791 5790 5789 5789 5788 5788 5786 5785 5784 5783 5782 5781 5779 5778 5776 5775 5774 5772 5770 5768 5767 5765 5763 5761 5758 5755 5752 5750 5748 5745 5742 5739 5736 5733 5730 5727
5788 5787 5786 5785 5785 5784 5783 5783 5781 5780 5779 5778 5776 5775 5773 5772 5771 5769 5768 5766 5765 5762 5760 5759 5757 5754 5752 5749 5745 5743 5740 5737 5735 5732 5728 5725 5722 5719
5783 5782 5781 5780 5779 5778 5778 5777 5776 5774 5773 5772 5770 5769 5767 5766 5764 5763 5761 5759 5758 5756 5754 5751 5749 5746 5744 5741 5738 5734 5732 5729 5726 5723 5720 5716 5713 5710
5777 5776 5775 5775 5774 5773 5771 5770 5769 5768 5766 5765 5764 5762 5760 5759 5757 5755 5754 5752 5750 5748 5746 5743 5741 5738 5735 5733 5730 5726 5723 5719 5716 5713 5710 5707 5704 5701
5770 5770 5769 5768 5767 5766 5765 5764 5762 5761 5760 5758 5757 5755 5753 5751 5750 5748 5746 5743 5741 5739 5737 5734 5732 5729 5726 5723 5720 5717 5713 5709 5706 5703 5700 5696 5693 5690
5763 5762 5762 5761 5760 5758 5757 5756 5755 5753 5752 5750 5749 5747 5745 5743 5741 5739 5737 5735 5733 5730 5727 5725 5722 5719 5716 5713 5710 5707 5703 5699 5696 5692 5689 5686 5682 5679
5755 5754 5754 5753 5752 5751 5749 5748 5747 5745 5744 5742 5740 5738 5736 5734 5732 5730 5728 5726 5723 5721 5717 5714 5711 5709 5706 5703 5699 5696 5692 5688 5685 5681 5678 5675 5671 5667
5747 5746 5745 5744 5743 5742 5741 5739 5737 5736 5734 5732 5730 5728 5726 5724 5722 5720 5718 5716 5713 5710 5707 5704 5701 5698 5695 5692 5688 5684 5680 5677 5673 5670 5667 5663 5659 5655
5738 5737 5736 5735 5734 5732 5731 5729 5727 5725 5723 5721 5720 5718 5716 5714 5712 5710 5707 5705 5702 5699 5696 5693 5690 5687 5684 5681 5677 5673 5669 5665 5662 5658 5655 5652 5648 5644
5729 5728 5726 5725 5724 5722 5720 5719 5716 5714 5712 5710 5709 5707 5705 5703 5701 5698 5696 5694 5691 5688 5685 5682 5679 5676 5673 5670 5666 5661 5658 5654 5650 5647 5643 5639 5636 5632
5719 5718 5716 5715 5713 5711 5709 5707 5705 5703 5701 5699 5697 5695 5693 5691 5689 5687 5684 5682 5680 5677 5674 5671 5667 5664 5661 5658 5655 5651 5646 5642 5638 5635 5631 5627 5624 5620
5708 5707 5705 5704 5702 5700 5698 5696 5694 5692 5690 5688 5686 5684 5681 5679 5677 5675 5673 5670 5668 5665 5662 5659 5655 5652 5649 5645 5643 5639 5634 5629 5625 5622 5619 5615 5612 5609
5697 5695 5694 5692 5690 5688 5687 5685 5683 5681 5679 5677 5674 5672 5669 5667 5665 5663 5661 5658 5656 5653 5650 5647 5643 5640 5636 5633 5630 5626 5623 5618 5614 5610 5606 5603 5599 5596
5685 5684 5682 5681 5679 5677 5675 5673 5671 5669 5667 5665 5662 5660 5657 5655 5653 5651 5648 5646 5643 5640 5637 5634 5631 5627 5624 5621 5617 5614 5610 5607 5603 5599 5595 5590 5586 5583